| time (UTC) | temp C | wind direction | speed KPH | gust KPH | rain 1hr cm | rain 24hr cm | rain mn cm | humidity % | barometer mb |
| 20260507145525 | 16 | 221 | 9.7 | 25.7 | 0.00 | 0.36 | 0.36 | 71 | 1012.7 |
| 20260507145004 | 16 | 226 | 12.9 | 41.8 | 0.00 | 0.36 | 0.36 | 70 | 1012.3 |
| 20260507144504 | 17 | 229 | 9.7 | 41.8 | 0.00 | 0.36 | 0.36 | 69 | 1011.9 |
| 20260507144004 | 17 | 221 | 11.3 | 32.2 | 0.00 | 0.36 | 0.36 | 70 | 1012.2 |
| 20260507143504 | 16 | 216 | 14.5 | 32.2 | 0.00 | 0.36 | 0.36 | 72 | 1012.3 |
| 20260507143004 | 16 | 204 | 9.7 | 22.5 | 0.00 | 0.36 | 0.36 | 73 | 1012.3 |
| 20260507142504 | 16 | 222 | 11.3 | 32.2 | 0.00 | 0.36 | 0.36 | 74 | 1012.4 |
| 20260507142004 | 16 | 230 | 12.9 | 32.2 | 0.00 | 0.36 | 0.36 | 75 | 1012.7 |
| 20260507141525 | 16 | 228 | 8.0 | 22.5 | 0.00 | 0.36 | 0.36 | 77 | 1012.6 |
| 20260507141004 | 16 | 238 | 9.7 | 22.5 | 0.00 | 0.36 | 0.36 | 75 | 1013.2 |
| 20260507140504 | 16 | 235 | 9.7 | 27.4 | 0.00 | 0.36 | 0.36 | 71 | 1013.5 |
| 20260507140004 | 16 | 229 | 9.7 | 35.4 | 0.00 | 0.36 | 0.36 | 71 | 1013.3 |
| 20260507135504 | 16 | 238 | 9.7 | 35.4 | 0.00 | 0.36 | 0.36 | 72 | 1014.6 |
| 20260507135004 | 16 | 237 | 16.1 | 35.4 | 0.00 | 0.36 | 0.36 | 72 | 1014.4 |
| 20260507134524 | 16 | 226 | 9.7 | 20.9 | 0.00 | 0.36 | 0.36 | 73 | 1012.9 |
| 20260507134004 | 16 | 218 | 11.3 | 27.4 | 0.00 | 0.36 | 0.36 | 72 | 1012.1 |
| 20260507133525 | 16 | 197 | 8.0 | 27.4 | 0.00 | 0.36 | 0.36 | 73 | 1011.0 |
| 20260507133004 | 16 | 193 | 9.7 | 25.7 | 0.00 | 0.36 | 0.36 | 73 | 1011.2 |
| 20260507132503 | 16 | 210 | 8.0 | 32.2 | 0.00 | 0.36 | 0.36 | 75 | 1010.8 |
| 20260507132004 | 16 | 203 | 11.3 | 32.2 | 0.00 | 0.36 | 0.36 | 76 | 1010.6 |
| 20260507131503 | 16 | 200 | 12.9 | 25.7 | 0.00 | 0.36 | 0.36 | 75 | 1010.6 |
| 20260507131003 | 16 | 218 | 11.3 | 17.7 | 0.00 | 0.36 | 0.36 | 73 | 1011.0 |
| 20260507130524 | 17 | 202 | 9.7 | 14.5 | 0.00 | 0.36 | 0.36 | 76 | 1011.3 |
| 20260507130004 | 17 | 198 | 8.0 | 22.5 | 0.00 | 0.36 | 0.36 | 79 | 1011.1 |
| 20260507125503 | 17 | 210 | 6.4 | 22.5 | 0.00 | 0.36 | 0.36 | 80 | 1011.3 |
| 20260507125004 | 17 | 195 | 6.4 | 16.1 | 0.00 | 0.36 | 0.36 | 82 | 1010.8 |
| 20260507124504 | 18 | 190 | 3.2 | 16.1 | 0.00 | 0.36 | 0.36 | 84 | 1010.7 |
| 20260507124004 | 18 | 196 | 4.8 | 16.1 | 0.00 | 0.36 | 0.36 | 86 | 1010.2 |
| 20260507123503 | 18 | 195 | 4.8 | 32.2 | 0.00 | 0.36 | 0.36 | 87 | 1010.3 |
| 20260507123003 | 18 | 200 | 6.4 | 32.2 | 0.00 | 0.36 | 0.36 | 87 | 1010.4 |
| 20260507122503 | 18 | 196 | 12.9 | 32.2 | 0.00 | 0.36 | 0.36 | 86 | 1010.2 |
| 20260507122004 | 18 | 179 | 4.8 | 22.5 | 0.00 | 0.36 | 0.36 | 90 | 1010.1 |
| 20260507121524 | 18 | 186 | 1.6 | 22.5 | 0.00 | 0.36 | 0.36 | 90 | 1010.2 |
| 20260507121003 | 18 | 193 | 12.9 | 20.9 | 0.00 | 0.36 | 0.36 | 89 | 1010.2 |
| 20260507120503 | 18 | 180 | 8.0 | 27.4 | 0.00 | 0.36 | 0.36 | 89 | 1010.5 |
| 20260507120004 | 18 | 186 | 3.2 | 30.6 | 0.00 | 0.36 | 0.36 | 90 | 1010.2 |
| 20260507115524 | 18 | 189 | 12.9 | 30.6 | 0.00 | 0.36 | 0.36 | 89 | 1009.9 |
| 20260507115003 | 18 | 188 | 14.5 | 22.5 | 0.00 | 0.36 | 0.36 | 89 | 1010.1 |
| 20260507114504 | 18 | 194 | 9.7 | 17.7 | 0.00 | 0.36 | 0.36 | 90 | 1010.0 |
| 20260507114003 | 18 | 188 | 4.8 | 17.7 | 0.00 | 0.36 | 0.36 | 90 | 1009.6 |
| 20260507113503 | 18 | 194 | 3.2 | 25.7 | 0.00 | 0.36 | 0.36 | 90 | 1009.5 |
| 20260507113004 | 18 | 188 | 8.0 | 35.4 | 0.00 | 0.36 | 0.36 | 90 | 1009.3 |
| 20260507112503 | 18 | 185 | 11.3 | 35.4 | 0.00 | 0.36 | 0.36 | 89 | 1009.3 |
| 20260507112003 | 18 | 181 | 6.4 | 30.6 | 0.00 | 0.36 | 0.36 | 90 | 1009.2 |
| 20260507111504 | 18 | 192 | 6.4 | 30.6 | 0.00 | 0.36 | 0.36 | 90 | 1009.1 |
| 20260507111005 | 18 | 189 | 8.0 | 45.1 | 0.00 | 0.36 | 0.36 | 90 | 1009.3 |
| 20260507110524 | 18 | 188 | 11.3 | 45.1 | 0.00 | 0.36 | 0.36 | 90 | 1008.7 |
| 20260507110004 | 18 | 198 | 6.4 | 35.4 | 0.00 | 0.36 | 0.36 | 91 | 1008.7 |
| 20260507105503 | 18 | 179 | 8.0 | 32.2 | 0.00 | 0.36 | 0.36 | 92 | 1008.9 |
| 20260507105003 | 18 | 169 | 11.3 | 48.3 | 0.00 | 0.36 | 0.36 | 92 | 1008.9 |
| 20260507104504 | 18 | 174 | 12.9 | 48.3 | 0.00 | 0.36 | 0.36 | 94 | 1008.7 |
| 20260507104003 | 18 | 177 | 6.4 | 30.6 | 0.00 | 0.36 | 0.36 | 94 | 1008.3 |
| 20260507103503 | 18 | 177 | 6.4 | 22.5 | 0.00 | 0.36 | 0.36 | 94 | 1008.2 |
| 20260507103003 | 18 | 187 | 8.0 | 22.5 | 0.00 | 0.36 | 0.36 | 94 | 1008.1 |
| 20260507102503 | 18 | 180 | 6.4 | 27.4 | 0.00 | 0.36 | 0.36 | 94 | 1008.0 |
| 20260507102003 | 17 | 188 | 8.0 | 27.4 | 0.00 | 0.36 | 0.36 | 94 | 1008.0 |
| 20260507101503 | 17 | 197 | 8.0 | 22.5 | 0.00 | 0.36 | 0.36 | 94 | 1007.7 |
| 20260507101024 | 18 | 179 | 6.4 | 16.1 | 0.00 | 0.36 | 0.36 | 94 | 1007.4 |
| 20260507100503 | 18 | 175 | 6.4 | 20.9 | 0.00 | 0.36 | 0.36 | 94 | 1007.8 |
| 20260507100004 | 18 | 196 | 8.0 | 20.9 | 0.00 | 0.36 | 0.36 | 94 | 1007.5 |
| 20260507095503 | 18 | 214 | 3.2 | 16.1 | 0.00 | 0.36 | 0.36 | 94 | 1007.2 |
| 20260507095003 | 18 | 192 | 4.8 | 16.1 | 0.00 | 0.36 | 0.36 | 94 | 1007.2 |
| 20260507094504 | 18 | 196 | 1.6 | 14.5 | 0.00 | 0.36 | 0.36 | 94 | 1007.2 |
| 20260507094025 | 18 | 188 | 6.4 | 20.9 | 0.03 | 0.36 | 0.36 | 94 | 1006.7 |
| 20260507093503 | 18 | 199 | 3.2 | 20.9 | 0.03 | 0.36 | 0.36 | 94 | 1006.3 |
| 20260507093004 | 18 | 209 | 1.6 | 17.7 | 0.03 | 0.36 | 0.36 | 94 | 1006.5 |
| 20260507092504 | 18 | 203 | 6.4 | 17.7 | 0.10 | 0.36 | 0.36 | 94 | 1006.0 |
| 20260507092004 | 18 | 215 | 6.4 | 17.7 | 0.15 | 0.36 | 0.36 | 94 | 1005.6 |
| 20260507091503 | 18 | 224 | 3.2 | 17.7 | 0.15 | 0.36 | 0.36 | 94 | 1005.3 |
| 20260507091003 | 18 | 211 | 3.2 | 16.1 | 0.15 | 0.36 | 0.36 | 94 | 1005.5 |
| 20260507090503 | 18 | 201 | 3.2 | 16.1 | 0.15 | 0.36 | 0.36 | 94 | 1005.7 |
| 20260507090005 | 18 | 188 | 1.6 | 12.9 | 0.15 | 0.36 | 0.36 | 94 | 1006.0 |
| 20260507085504 | 18 | 211 | 3.2 | 9.7 | 0.15 | 0.36 | 0.36 | 94 | 1006.6 |
| 20260507085004 | 18 | 218 | 3.2 | 8.0 | 0.15 | 0.36 | 0.36 | 94 | 1006.7 |
| 20260507084525 | 18 | 190 | 1.6 | 12.9 | 0.15 | 0.36 | 0.36 | 94 | 1006.8 |
| 20260507084004 | 18 | 186 | 3.2 | 12.9 | 0.13 | 0.33 | 0.33 | 94 | 1006.5 |
| 20260507083503 | 18 | 204 | 0.0 | 9.7 | 0.25 | 0.33 | 0.33 | 94 | 1005.8 |
| 20260507083004 | 18 | 195 | 1.6 | 22.5 | 0.30 | 0.33 | 0.33 | 94 | 1006.1 |
| 20260507082504 | 18 | 155 | 0.0 | 22.5 | 0.20 | 0.25 | 0.25 | 94 | 1006.4 |
| 20260507082025 | 18 | 141 | 6.4 | 14.5 | 0.15 | 0.18 | 0.18 | 94 | 1006.3 |
| 20260507081525 | 18 | 172 | 4.8 | 14.5 | 0.15 | 0.18 | 0.18 | 94 | 1006.4 |
| 20260507081004 | 18 | 165 | 0.0 | 9.7 | 0.18 | 0.18 | 0.18 | 94 | 1006.7 |
| 20260507080504 | 18 | 168 | 0.0 | 3.2 | 0.18 | 0.18 | 0.18 | 94 | 1006.2 |
| 20260507080025 | 18 | 198 | 0.0 | 4.8 | 0.18 | 0.18 | 0.18 | 94 | 1006.6 |
| 20260507075503 | 18 | 174 | 0.0 | 8.0 | 0.18 | 0.18 | 0.18 | 94 | 1006.5 |
| 20260507075004 | 18 | 177 | 1.6 | 8.0 | 0.18 | 0.18 | 0.18 | 94 | 1006.3 |
| 20260507074504 | 19 | 186 | 0.0 | 14.5 | 0.18 | 0.18 | 0.18 | 94 | 1006.9 |
| 20260507074004 | 19 | 183 | 8.0 | 14.5 | 0.18 | 0.18 | 0.18 | 94 | 1006.8 |
| 20260507073504 | 20 | 188 | 4.8 | 12.9 | 0.08 | 0.08 | 0.08 | 94 | 1006.5 |
| 20260507073004 | 20 | 169 | 3.2 | 17.7 | 0.03 | 0.03 | 0.03 | 90 | 1007.0 |
| 20260507072504 | 21 | 172 | 3.2 | 20.9 | 0.03 | 0.03 | 0.03 | 87 | 1006.6 |
| 20260507072025 | 21 | 189 | 8.0 | 20.9 | 0.03 | 0.03 | 0.03 | 88 | 1006.7 |
| 20260507071504 | 21 | 195 | 4.8 | 17.7 | 0.03 | 0.03 | 0.03 | 89 | 1006.9 |
| 20260507071004 | 22 | 179 | 4.8 | 16.1 | 0.00 | 0.00 | 0.00 | 86 | 1006.9 |
| 20260507070504 | 22 | 181 | 1.6 | 16.1 | 0.00 | 0.00 | 0.00 | 89 | 1006.4 |
| 20260507070025 | 23 | 205 | 3.2 | 12.9 | 0.00 | 0.00 | 0.00 | 91 | 1006.7 |
| 20260507065504 | 23 | 240 | 3.2 | 12.9 | 0.00 | 0.00 | 0.00 | 92 | 1006.5 |
| 20260507065025 | 22 | 232 | 1.6 | 12.9 | 0.00 | 0.00 | 0.00 | 93 | 1006.6 |
| 20260507064504 | 22 | 219 | 4.8 | 12.9 | 0.00 | 0.00 | 0.00 | 94 | 1006.7 |
| 20260507064004 | 22 | 0 | 0.0 | 0.0 | 0.00 | 0.00 | 0.00 | 94 | 1006.3 |
| 20260507063504 | 22 | 45 | 0.0 | 3.2 | 0.00 | 0.00 | 0.00 | 94 | 1006.1 |
| 20260507063004 | 22 | 33 | 0.0 | 8.0 | 0.00 | 0.00 | 0.00 | 94 | 1006.3 |
| 20260507062525 | 22 | 33 | 0.0 | 8.0 | 0.00 | 0.00 | 0.00 | 94 | 1006.1 |
| 20260507062025 | 22 | 0 | 0.0 | 0.0 | 0.00 | 0.00 | 0.00 | 94 | 1006.4 |
| 20260507061504 | 22 | 0 | 0.0 | 0.0 | 0.00 | 0.00 | 0.00 | 94 | 1006.0 |
| 20260507061025 | 22 | 0 | 0.0 | 0.0 | 0.00 | 0.00 | 0.00 | 94 | 1006.0 |
| 20260507060504 | 22 | 0 | 0.0 | 0.0 | 0.00 | 0.00 | 0.00 | 94 | 1006.2 |
| 20260507060004 | 22 | 0 | 0.0 | 0.0 | 0.00 | 0.00 | 0.00 | 94 | 1006.2 |
| 20260507055504 | 22 | 0 | 0.0 | 0.0 | 0.00 | 0.00 | 0.00 | 94 | 1006.3 |
| 20260507055004 | 22 | 0 | 0.0 | 0.0 | 0.00 | 0.00 | 0.00 | 94 | 1006.3 |
| 20260507054503 | 22 | 0 | 0.0 | 0.0 | 0.00 | 0.00 | 0.00 | 93 | 1006.5 |
| 20260507054004 | 22 | 358 | 0.0 | 8.0 | 0.00 | 0.00 | 0.00 | 93 | 1006.6 |
| 20260507053504 | 22 | 16 | 0.0 | 8.0 | 0.00 | 0.00 | 0.00 | 92 | 1006.5 |
| 20260507053025 | 23 | 15 | 0.0 | 8.0 | 0.00 | 0.00 | 0.00 | 92 | 1006.4 |
| 20260507052503 | 23 | 16 | 0.0 | 12.9 | 0.00 | 0.00 | 0.00 | 92 | 1006.5 |
| 20260507052004 | 23 | 23 | 6.4 | 12.9 | 0.00 | 0.00 | 0.00 | 91 | 1006.6 |
| 20260507051504 | 23 | 13 | 0.0 | 12.9 | 0.00 | 0.00 | 0.00 | 91 | 1006.7 |
| 20260507051004 | 23 | 16 | 4.8 | 12.9 | 0.00 | 0.00 | 0.00 | 91 | 1006.5 |
| 20260507050503 | 23 | 32 | 6.4 | 20.9 | 0.00 | 0.00 | 0.00 | 91 | 1006.6 |
| 20260507050004 | 23 | 16 | 11.3 | 20.9 | 0.00 | 0.00 | 0.00 | 90 | 1006.5 |
| 20260507045504 | 23 | 4 | 1.6 | 14.5 | 0.00 | 0.00 | 0.00 | 90 | 1006.6 |
| 20260507045004 | 23 | 4 | 8.0 | 14.5 | 0.00 | 0.00 | 0.00 | 90 | 1006.5 |
| 20260507044524 | 23 | 11 | 3.2 | 14.5 | 0.00 | 0.00 | 0.00 | 90 | 1006.6 |
| 20260507044003 | 23 | 26 | 3.2 | 14.5 | 0.00 | 0.00 | 0.00 | 89 | 1006.6 |
| 20260507043503 | 23 | 21 | 1.6 | 14.5 | 0.00 | 0.00 | 0.00 | 89 | 1006.6 |
| 20260507043004 | 23 | 12 | 1.6 | 14.5 | 0.00 | 0.00 | 0.00 | 89 | 1006.6 |
| 20260507042503 | 23 | 16 | 4.8 | 14.5 | 0.00 | 0.00 | 0.00 | 89 | 1006.8 |
| 20260507042024 | 23 | 13 | 4.8 | 14.5 | 0.00 | 0.00 | 0.00 | 89 | 1006.7 |
| 20260507041504 | 23 | 11 | 3.2 | 12.9 | 0.00 | 0.00 | 0.00 | 89 | 1006.6 |
| 20260507041004 | 23 | 23 | 1.6 | 9.7 | 0.00 | 0.00 | 0.00 | 89 | 1006.7 |
| 20260507040525 | 23 | 280 | 0.0 | 4.8 | 0.00 | 0.00 | 0.00 | 89 | 1006.8 |
| 20260507040004 | 23 | 290 | 0.0 | 4.8 | 0.00 | 0.00 | 0.00 | 89 | 1006.8 |
| 20260507035504 | 23 | 339 | 0.0 | 14.5 | 0.00 | 0.00 | 0.00 | 88 | 1006.9 |
| 20260507035003 | 23 | 6 | 3.2 | 14.5 | 0.00 | 0.00 | 0.00 | 88 | 1006.8 |
| 20260507034503 | 23 | 14 | 4.8 | 14.5 | 0.00 | 0.00 | 0.00 | 88 | 1006.8 |
| 20260507034004 | 23 | 7 | 6.4 | 17.7 | 0.00 | 0.00 | 0.00 | 88 | 1006.9 |
| 20260507033503 | 23 | 12 | 6.4 | 17.7 | 0.00 | 0.00 | 0.00 | 88 | 1006.9 |
| 20260507033003 | 23 | 4 | 4.8 | 14.5 | 0.00 | 0.00 | 0.00 | 88 | 1007.1 |
| 20260507032504 | 23 | 3 | 6.4 | 14.5 | 0.00 | 0.00 | 0.00 | 88 | 1007.1 |
| 20260507032004 | 23 | 16 | 4.8 | 9.7 | 0.00 | 0.00 | 0.00 | 89 | 1007.3 |
| 20260507031503 | 23 | 25 | 4.8 | 8.0 | 0.00 | 0.00 | 0.00 | 89 | 1007.2 |
| 20260507031003 | 23 | 42 | 1.6 | 3.2 | 0.00 | 0.00 | 0.00 | 90 | 1007.3 |
| 20260507030504 | 23 | 0 | 0.0 | 0.0 | 0.00 | 0.00 | 0.00 | 90 | 1007.2 |
| 20260507030025 | 23 | 0 | 0.0 | 0.0 | 0.00 | 0.00 | 0.00 | 90 | 1007.3 |
| 20260507025504 | 23 | 0 | 0.0 | 0.0 | 0.00 | 0.00 | 0.00 | 90 | 1007.5 |
| 20260507025004 | 23 | 0 | 0.0 | 0.0 | 0.00 | 0.00 | 0.00 | 90 | 1007.5 |
| 20260507024504 | 23 | 0 | 0.0 | 0.0 | 0.00 | 0.00 | 0.00 | 90 | 1007.5 |
| 20260507024004 | 23 | 0 | 0.0 | 0.0 | 0.00 | 0.00 | 0.00 | 89 | 1007.4 |
| 20260507023504 | 23 | 0 | 0.0 | 0.0 | 0.00 | 0.00 | 0.00 | 89 | 1007.4 |
| 20260507023004 | 23 | 0 | 0.0 | 0.0 | 0.00 | 0.00 | 0.00 | 89 | 1007.4 |
| 20260507022504 | 23 | 0 | 0.0 | 0.0 | 0.00 | 0.00 | 0.00 | 88 | 1007.6 |
| 20260507022004 | 24 | 0 | 0.0 | 0.0 | 0.00 | 0.00 | 0.00 | 88 | 1007.5 |
| 20260507021504 | 24 | 0 | 0.0 | 0.0 | 0.00 | 0.00 | 0.00 | 87 | 1007.7 |
| 20260507021025 | 24 | 0 | 0.0 | 0.0 | 0.00 | 0.00 | 0.00 | 87 | 1007.6 |
| 20260507020504 | 24 | 0 | 0.0 | 0.0 | 0.00 | 0.00 | 0.00 | 87 | 1007.6 |
| 20260507020004 | 24 | 354 | 0.0 | 8.0 | 0.00 | 0.00 | 0.00 | 87 | 1007.4 |
| 20260507015504 | 24 | 3 | 0.0 | 8.0 | 0.00 | 0.00 | 0.00 | 87 | 1007.4 |
| 20260507015004 | 24 | 356 | 1.6 | 8.0 | 0.00 | 0.00 | 0.00 | 87 | 1007.3 |
| 20260507014504 | 24 | 11 | 1.6 | 8.0 | 0.00 | 0.00 | 0.00 | 87 | 1007.4 |
| 20260507014004 | 23 | 26 | 1.6 | 9.7 | 0.00 | 0.00 | 0.00 | 88 | 1007.0 |
| 20260507013504 | 23 | 12 | 3.2 | 9.7 | 0.00 | 0.00 | 0.00 | 87 | 1007.1 |
| 20260507013004 | 23 | 33 | 1.6 | 12.9 | 0.00 | 0.00 | 0.00 | 88 | 1006.7 |
| 20260507012504 | 23 | 30 | 3.2 | 14.5 | 0.00 | 0.00 | 0.00 | 87 | 1006.8 |
| 20260507012004 | 24 | 26 | 1.6 | 14.5 | 0.00 | 0.00 | 0.00 | 87 | 1006.8 |
| 20260507011504 | 24 | 33 | 6.4 | 14.5 | 0.00 | 0.00 | 0.00 | 87 | 1006.8 |
| 20260507011004 | 24 | 30 | 4.8 | 17.7 | 0.00 | 0.00 | 0.00 | 87 | 1006.8 |
| 20260507010504 | 24 | 37 | 4.8 | 17.7 | 0.00 | 0.00 | 0.00 | 87 | 1006.8 |
| 20260507010004 | 24 | 42 | 4.8 | 14.5 | 0.00 | 0.00 | 0.00 | 86 | 1006.7 |
| 20260507005503 | 24 | 38 | 4.8 | 16.1 | 0.00 | 0.00 | 0.00 | 86 | 1006.8 |
| 20260507005004 | 24 | 20 | 6.4 | 16.1 | 0.00 | 0.00 | 0.00 | 86 | 1006.8 |
| 20260507004504 | 24 | 13 | 8.0 | 12.9 | 0.00 | 0.00 | 0.00 | 86 | 1006.6 |
| 20260507004004 | 24 | 13 | 6.4 | 14.5 | 0.00 | 0.00 | 0.00 | 86 | 1006.7 |
| 20260507003504 | 25 | 8 | 6.4 | 14.5 | 0.00 | 0.00 | 0.00 | 85 | 1006.9 |
| 20260507003004 | 25 | 15 | 4.8 | 16.1 | 0.00 | 0.00 | 0.00 | 84 | 1006.8 |
| 20260507002503 | 25 | 40 | 3.2 | 16.1 | 0.00 | 0.00 | 0.00 | 84 | 1006.8 |
| 20260507002004 | 25 | 32 | 6.4 | 16.1 | 0.00 | 0.00 | 0.00 | 83 | 1006.8 |
| 20260507001525 | 25 | 17 | 8.0 | 16.1 | 0.00 | 0.00 | 0.00 | 83 | 1006.8 |
| 20260507001004 | 25 | 16 | 4.8 | 17.7 | 0.00 | 0.00 | 0.00 | 82 | 1006.9 |
| 20260507000504 | 25 | 22 | 6.4 | 17.7 | 0.00 | 0.00 | 0.00 | 82 | 1007.0 |
| 20260507000004 | 25 | 21 | 4.8 | 16.1 | 0.00 | 0.00 | 0.00 | 81 | 1007.2 |
| 20260506235503 | 25 | 22 | 6.4 | 12.9 | 0.00 | 0.00 | 0.00 | 81 | 1007.1 |
| 20260506235024 | 25 | 22 | 8.0 | 12.9 | 0.00 | 0.00 | 0.00 | 81 | 1007.1 |
| 20260506234504 | 25 | 23 | 4.8 | 12.9 | 0.00 | 0.00 | 0.00 | 80 | 1007.1 |
| 20260506234003 | 26 | 17 | 4.8 | 14.5 | 0.00 | 0.00 | 0.00 | 80 | 1007.1 |
| 20260506233524 | 26 | 22 | 6.4 | 17.7 | 0.00 | 0.00 | 0.00 | 79 | 1007.0 |
| 20260506233025 | 26 | 26 | 4.8 | 17.7 | 0.00 | 0.00 | 0.00 | 78 | 1007.0 |
| 20260506232503 | 26 | 15 | 6.4 | 17.7 | 0.00 | 0.00 | 0.00 | 78 | 1006.7 |
| 20260506232024 | 26 | 5 | 6.4 | 17.7 | 0.00 | 0.00 | 0.00 | 77 | 1006.5 |
| 20260506231503 | 26 | 2 | 8.0 | 20.9 | 0.00 | 0.00 | 0.00 | 77 | 1006.6 |
| 20260506231024 | 26 | 12 | 14.5 | 20.9 | 0.00 | 0.00 | 0.00 | 77 | 1006.6 |
| 20260506230524 | 26 | 31 | 6.4 | 22.5 | 0.00 | 0.00 | 0.00 | 77 | 1006.5 |
| 20260506230003 | 26 | 20 | 11.3 | 25.7 | 0.00 | 0.00 | 0.00 | 77 | 1006.5 |
| 20260506225503 | 26 | 9 | 11.3 | 25.7 | 0.00 | 0.00 | 0.00 | 77 | 1006.8 |
| 20260506225003 | 26 | 34 | 6.4 | 16.1 | 0.00 | 0.00 | 0.00 | 76 | 1006.7 |
| 20260506224503 | 26 | 68 | 6.4 | 20.9 | 0.00 | 0.00 | 0.00 | 76 | 1006.8 |
| 20260506224003 | 26 | 24 | 8.0 | 22.5 | 0.00 | 0.00 | 0.00 | 75 | 1006.9 |
| 20260506223503 | 27 | 13 | 9.7 | 22.5 | 0.00 | 0.00 | 0.00 | 75 | 1007.1 |
| 20260506223003 | 27 | 8 | 9.7 | 17.7 | 0.00 | 0.00 | 0.00 | 75 | 1007.1 |
| 20260506222503 | 27 | 358 | 8.0 | 20.9 | 0.00 | 0.00 | 0.00 | 75 | 1007.3 |
| 20260506222003 | 27 | 8 | 8.0 | 20.9 | 0.00 | 0.00 | 0.00 | 75 | 1007.3 |
| 20260506221524 | 26 | 25 | 4.8 | 20.9 | 0.00 | 0.00 | 0.00 | 76 | 1007.1 |
| 20260506221003 | 26 | 22 | 8.0 | 16.1 | 0.00 | 0.00 | 0.00 | 76 | 1007.0 |
| 20260506220524 | 27 | 8 | 6.4 | 16.1 | 0.00 | 0.00 | 0.00 | 76 | 1007.0 |
| 20260506220005 | 27 | 3 | 6.4 | 14.5 | 0.00 | 0.00 | 0.00 | 76 | 1007.1 |
| 20260506215504 | 27 | 360 | 6.4 | 14.5 | 0.00 | 0.00 | 0.00 | 75 | 1007.4 |
| 20260506215006 | 27 | 12 | 6.4 | 14.5 | 0.00 | 0.00 | 0.00 | 75 | 1007.5 |
| 20260506214526 | 27 | 35 | 8.0 | 16.1 | 0.00 | 0.00 | 0.00 | 75 | 1007.4 |
| 20260506214004 | 27 | 23 | 4.8 | 16.1 | 0.00 | 0.00 | 0.00 | 75 | 1007.4 |
| 20260506213505 | 27 | 4 | 3.2 | 12.9 | 0.00 | 0.00 | 0.00 | 76 | 1007.3 |
| 20260506213025 | 27 | 355 | 6.4 | 12.9 | 0.00 | 0.00 | 0.00 | 76 | 1007.3 |
| 20260506212505 | 27 | 359 | 4.8 | 14.5 | 0.00 | 0.00 | 0.00 | 76 | 1007.4 |
| 20260506212025 | 27 | 354 | 8.0 | 14.5 | 0.00 | 0.00 | 0.00 | 76 | 1007.1 |
| 20260506211505 | 27 | 14 | 8.0 | 16.1 | 0.00 | 0.00 | 0.00 | 76 | 1006.9 |
| 20260506211005 | 27 | 38 | 6.4 | 16.1 | 0.00 | 0.00 | 0.00 | 76 | 1006.8 |
| 20260506210505 | 28 | 30 | 9.7 | 16.1 | 0.00 | 0.00 | 0.00 | 75 | 1006.9 |
| 20260506210004 | 28 | 21 | 6.4 | 22.5 | 0.00 | 0.00 | 0.00 | 74 | 1006.8 |
| 20260506205504 | 28 | 16 | 8.0 | 22.5 | 0.00 | 0.00 | 0.00 | 72 | 1007.0 |
| 20260506205004 | 29 | 6 | 4.8 | 14.5 | 0.00 | 0.00 | 0.00 | 71 | 1006.9 |
| 20260506204504 | 29 | 13 | 6.4 | 14.5 | 0.00 | 0.00 | 0.00 | 70 | 1007.2 |
| 20260506204005 | 30 | 21 | 4.8 | 14.5 | 0.00 | 0.00 | 0.00 | 69 | 1007.4 |
| 20260506203504 | 30 | 26 | 6.4 | 14.5 | 0.00 | 0.00 | 0.00 | 68 | 1007.3 |
| 20260506203005 | 30 | 8 | 4.8 | 25.7 | 0.00 | 0.00 | 0.00 | 67 | 1007.3 |
| 20260506202505 | 30 | 358 | 4.8 | 25.7 | 0.00 | 0.00 | 0.00 | 66 | 1007.3 |
| 20260506202026 | 30 | 10 | 8.0 | 17.7 | 0.00 | 0.00 | 0.00 | 67 | 1007.3 |
| 20260506201504 | 30 | 15 | 4.8 | 14.5 | 0.00 | 0.00 | 0.00 | 70 | 1007.4 |
| 20260506201025 | 30 | 21 | 3.2 | 12.9 | 0.00 | 0.00 | 0.00 | 70 | 1007.4 |
| 20260506200504 | 30 | 11 | 3.2 | 12.9 | 0.00 | 0.00 | 0.00 | 71 | 1007.4 |
| 20260506200004 | 30 | 22 | 4.8 | 12.9 | 0.00 | 0.00 | 0.00 | 72 | 1007.5 |
| 20260506195504 | 30 | 25 | 4.8 | 14.5 | 0.00 | 0.00 | 0.00 | 71 | 1007.5 |
| 20260506195004 | 30 | 26 | 4.8 | 14.5 | 0.00 | 0.00 | 0.00 | 70 | 1007.5 |
| 20260506194504 | 30 | 22 | 6.4 | 14.5 | 0.00 | 0.00 | 0.00 | 71 | 1007.5 |
| 20260506194004 | 30 | 23 | 6.4 | 14.5 | 0.00 | 0.00 | 0.00 | 70 | 1007.5 |
| 20260506193525 | 30 | 20 | 6.4 | 12.9 | 0.00 | 0.00 | 0.00 | 70 | 1007.4 |
| 20260506193026 | 31 | 359 | 4.8 | 12.9 | 0.00 | 0.00 | 0.00 | 69 | 1007.5 |
| 20260506192504 | 31 | 19 | 6.4 | 14.5 | 0.00 | 0.00 | 0.00 | 69 | 1007.5 |
| 20260506192004 | 30 | 33 | 6.4 | 14.5 | 0.00 | 0.00 | 0.00 | 69 | 1007.5 |
| 20260506191504 | 30 | 42 | 8.0 | 16.1 | 0.00 | 0.00 | 0.00 | 68 | 1007.4 |
| 20260506191004 | 30 | 28 | 6.4 | 17.7 | 0.00 | 0.00 | 0.00 | 68 | 1007.5 |
| 20260506190525 | 30 | 7 | 6.4 | 17.7 | 0.00 | 0.00 | 0.00 | 68 | 1007.7 |
| 20260506190005 | 30 | 6 | 6.4 | 16.1 | 0.00 | 0.00 | 0.00 | 69 | 1007.8 |
| 20260506185504 | 30 | 23 | 4.8 | 14.5 | 0.00 | 0.00 | 0.00 | 69 | 1007.9 |
| 20260506185025 | 30 | 37 | 6.4 | 16.1 | 0.00 | 0.00 | 0.00 | 69 | 1007.9 |
| 20260506184504 | 30 | 12 | 9.7 | 25.7 | 0.00 | 0.00 | 0.00 | 69 | 1007.8 |
| 20260506184025 | 30 | 357 | 6.4 | 25.7 | 0.00 | 0.00 | 0.00 | 68 | 1008.0 |
| 20260506183525 | 30 | 14 | 12.9 | 20.9 | 0.00 | 0.00 | 0.00 | 69 | 1008.1 |
| 20260506183005 | 30 | 12 | 8.0 | 25.7 | 0.00 | 0.00 | 0.00 | 67 | 1008.1 |
| 20260506182504 | 30 | 5 | 12.9 | 25.7 | 0.00 | 0.00 | 0.00 | 66 | 1008.2 |
| 20260506182025 | 30 | 30 | 8.0 | 20.9 | 0.00 | 0.00 | 0.00 | 66 | 1008.1 |
| 20260506181525 | 31 | 29 | 9.7 | 22.5 | 0.00 | 0.00 | 0.00 | 65 | 1008.1 |
| 20260506181004 | 31 | 25 | 11.3 | 22.5 | 0.00 | 0.00 | 0.00 | 64 | 1008.3 |
| 20260506180504 | 31 | 18 | 14.5 | 22.5 | 0.00 | 0.00 | 0.00 | 65 | 1008.4 |
| 20260506180025 | 31 | 17 | 14.5 | 20.9 | 0.00 | 0.00 | 0.00 | 66 | 1008.3 |
| 20260506175504 | 31 | 6 | 4.8 | 25.7 | 0.00 | 0.00 | 0.00 | 67 | 1008.4 |
| 20260506175004 | 31 | 1 | 1.6 | 25.7 | 0.00 | 0.00 | 0.00 | 70 | 1008.4 |
| 20260506174504 | 30 | 355 | 9.7 | 20.9 | 0.00 | 0.00 | 0.00 | 69 | 1008.5 |
| 20260506174004 | 30 | 18 | 12.9 | 17.7 | 0.00 | 0.00 | 0.00 | 69 | 1008.8 |
| 20260506173504 | 30 | 37 | 9.7 | 20.9 | 0.00 | 0.00 | 0.00 | 69 | 1008.8 |
| 20260506173004 | 30 | 23 | 6.4 | 27.4 | 0.00 | 0.00 | 0.00 | 69 | 1009.0 |
| 20260506172504 | 30 | 11 | 11.3 | 27.4 | 0.00 | 0.00 | 0.00 | 70 | 1008.9 |
| 20260506172004 | 30 | 8 | 9.7 | 25.7 | 0.00 | 0.00 | 0.00 | 70 | 1009.2 |
| 20260506171504 | 30 | 36 | 11.3 | 25.7 | 0.00 | 0.00 | 0.00 | 69 | 1009.4 |
| 20260506171004 | 30 | 22 | 11.3 | 22.5 | 0.00 | 0.00 | 0.00 | 70 | 1009.4 |
| 20260506170504 | 30 | 347 | 6.4 | 25.7 | 0.00 | 0.00 | 0.00 | 71 | 1009.7 |
| 20260506170004 | 30 | 10 | 9.7 | 25.7 | 0.00 | 0.00 | 0.00 | 71 | 1009.5 |
| 20260506165504 | 29 | 36 | 11.3 | 17.7 | 0.00 | 0.00 | 0.00 | 71 | 1009.8 |
| 20260506165004 | 30 | 33 | 9.7 | 20.9 | 0.00 | 0.00 | 0.00 | 71 | 1010.0 |
| 20260506164504 | 29 | 26 | 9.7 | 22.5 | 0.00 | 0.00 | 0.00 | 72 | 1009.8 |
| 20260506164004 | 29 | 20 | 11.3 | 22.5 | 0.00 | 0.00 | 0.00 | 72 | 1009.9 |
| 20260506163504 | 29 | 13 | 8.0 | 22.5 | 0.00 | 0.00 | 0.00 | 74 | 1010.0 |
| 20260506163025 | 28 | 16 | 12.9 | 27.4 | 0.00 | 0.00 | 0.00 | 73 | 1010.2 |
| 20260506162504 | 28 | 28 | 12.9 | 27.4 | 0.00 | 0.00 | 0.00 | 73 | 1010.4 |
| 20260506162004 | 29 | 16 | 11.3 | 25.7 | 0.00 | 0.00 | 0.00 | 71 | 1010.1 |
| 20260506161504 | 29 | 8 | 9.7 | 25.7 | 0.00 | 0.00 | 0.00 | 72 | 1010.4 |
| 20260506161025 | 29 | 12 | 11.3 | 20.9 | 0.00 | 0.00 | 0.00 | 72 | 1010.5 |
| 20260506160504 | 29 | 7 | 14.5 | 22.5 | 0.00 | 0.00 | 0.00 | 73 | 1010.5 |
| 20260506160004 | 28 | 11 | 9.7 | 25.7 | 0.00 | 0.00 | 0.00 | 73 | 1010.6 |
| 20260506155504 | 29 | 8 | 8.0 | 25.7 | 0.00 | 0.00 | 0.00 | 73 | 1010.6 |
| 20260506155004 | 28 | 5 | 9.7 | 25.7 | 0.00 | 0.00 | 0.00 | 73 | 1011.0 |
| 20260506154504 | 29 | 18 | 9.7 | 25.7 | 0.00 | 0.00 | 0.00 | 73 | 1011.1 |
| 20260506154004 | 29 | 22 | 9.7 | 25.7 | 0.00 | 0.00 | 0.00 | 72 | 1011.0 |
| 20260506153503 | 28 | 20 | 14.5 | 25.7 | 0.00 | 0.00 | 0.00 | 73 | 1011.2 |
| 20260506153004 | 28 | 13 | 9.7 | 25.7 | 0.00 | 0.00 | 0.00 | 73 | 1011.4 |
| 20260506152504 | 28 | 13 | 9.7 | 25.7 | 0.00 | 0.00 | 0.00 | 74 | 1011.5 |
| 20260506152004 | 28 | 26 | 8.0 | 30.6 | 0.00 | 0.00 | 0.00 | 74 | 1011.5 |
| 20260506151504 | 28 | 16 | 14.5 | 30.6 | 0.00 | 0.00 | 0.00 | 74 | 1011.7 |
| 20260506151004 | 28 | 2 | 9.7 | 22.5 | 0.00 | 0.00 | 0.00 | 75 | 1011.9 |
| 20260506150504 | 28 | 6 | 9.7 | 20.9 | 0.00 | 0.00 | 0.00 | 74 | 1012.0 |
| 20260506150004 | 28 | 358 | 6.4 | 16.1 | 0.00 | 0.00 | 0.00 | 75 | 1012.1 |